Regional Weather Roundup
Issued by NWS

Home | Current Version | Previous Version | Graphics & Text | Print | Product List | Glossary On
Versions: 1 2 3 4 5 6 7 8 9 10 11 12 13 14 15 16 17 18 19 20 21 22 23 24 25 26 27 28 29 30 31 32 33 34 35 36 37 38 39 40 41 42 43 44 45 46 47 48 49 50
726
ASUS45 KSLC 101110
RWRUT

UTAH REGIONAL WEATHER ROUNDUP
NATIONAL WEATHER SERVICE SALT LAKE CITY UT
400 AM MST WED FEB 10 2016

UTZ001>011-023>025-101200-

NORTHERN UTAH

CITY           SKY/WX    TMP DP  RH WIND       PRES   REMARKS
BRIGHAM CITY   CLOUDY    11   8  87 CALM      30.47F VSB<1/4
HILL AFB       FOG       27  25  93 NE1       30.45S VSB 1/16
LOGAN          FOG        3   0  87 CALM      30.46F VSB 1/4
OGDEN          CLOUDY    26  24  92 E5        30.44F WCI  20
PROVO AIRPORT    N/A    N/A N/A N/A CALM      30.44F VSB<1/4
SALT LAKE CITY FOG       27  25  92 N8        30.46S VSB 1/2 WCI  19
VERNAL         CLOUDY    10   6  84 W6        30.47F WCI   0
WENDOVER       CLOUDY    28  27  93 CALM      30.46F
HEBER CITY     PTCLDY     5   3  92 CALM      30.43S
WEST JORDAN    CLEAR     21  19  93 CALM      30.45F

$$

UTZ012>022-026-027-101200-

SOUTHERN/CENTRAL UTAH

CITY           SKY/WX    TMP DP  RH WIND       PRES   REMARKS
BLANDING       PTCLDY    25  17  70 CALM      30.49S
BRYCE CANYON   PTCLDY    12   3  67 W6        30.46F WCI   3
CEDAR CITY     FOG       13  11  92 NW3       30.40S VSB 1/4
DELTA          CLOUDY     8   6  92 NW3       30.45R VSB 1/2
HANKSVILLE     CLOUDY    21  21 100 CALM      30.48F
MILFORD        FOG        4   0  83 SW6       30.43R VSB 1/4 WCI  -7
MOAB/CYNLANDS  MOCLDY    20  18  92 CALM      30.44S
PRICE          PTCLDY    21  15  78 CALM      30.41F
ST GEORGE      MOSUNNY   37  25  60 CALM      30.38S
KANAB          CLEAR     34  25  69 N7        30.42  WCI  28

$$

REGIONAL REPORTS     COLORADO/ARIZONA

CITY           SKY/WX    TMP DP  RH WIND       PRES   REMARKS
CRAIG, CO      FOG       -1  -5  82 CALM      30.45F VSB 3/4
GRAND JUNCTION CLOUDY    19  17  92 E7        30.44F WCI  10
RIFLE          CLOUDY    16  11  80 SE3       30.49S
MONTROSE       CLEAR     20  13  74 S10       30.48F WCI   9
CORTEZ         CLOUDY    19  15  84 E6        30.43F WCI  11
PAGE, AZ       CLEAR     32  26  78 CALM      30.41F
GRAND CANYON   PTCLDY    23  17  78 NE6       30.42F WCI  16
KINGMAN        PTCLDY    40  23  50 CALM      30.28F
FLAGSTAFF      CLEAR     23  15  71 CALM      30.42S

$$

REGIONAL REPORTS    NEVADA/IDAHO/WYOMING

CITY           SKY/WX    TMP DP  RH WIND       PRES   REMARKS
LAS VEGAS, NV  MOCLDY    50  28  42 SW3       30.24R
ELY            MOCLDY    10   4  76 S16       30.41F WCI  -7
ELKO           CLOUDY     8   4  83 E9        30.45S WCI  -5
POCATELLO, ID  CLOUDY    14  12  92 E5        30.42S WCI   6
BURLEY         MOCLDY    24  22  91 N3        30.37S
EVANSTON, WY   CLOUDY    25  16  68 S9        30.39F WCI  15
ROCK SPRINGS   CLOUDY    25  16  68 W10       30.36F WCI  15

$$




USA.gov is the U.S. government's official web portal to all federal, state and local government web resources and services.